W4RLH Weather Reports


time (UTC)temp
C
wind
direction
speed
KPH
gust
KPH
rain 1hr
cm
rain 24hr
cm
rain mn
cm
humidity
%
barometer
mb
20260510183038 25 226 0.0 3.2 0.00 0.00 0.00 47 1014.1
20260510181543 25 225 0.0 6.4 0.00 0.00 0.00 50 1014.1
20260510180051 25 86 1.6 4.8 0.00 0.00 0.00 48 1014.2
20260510174540 25 55 1.6 6.4 0.00 0.00 0.00 47 1014.3
20260510173049 25 0 0.0 3.2 0.00 0.00 0.00 51 1014.3
20260510171540 25 0 0.0 4.8 0.00 0.00 0.00 53 1014.5
20260510170047 26 0 0.0 6.4 0.00 0.00 0.00 49 1014.5
20260510164542 26 0 0.0 3.2 0.00 0.00 0.00 51 1014.5
20260510163043 26 81 0.0 3.2 0.00 0.00 0.00 51 1014.6
20260510161540 25 144 0.0 4.8 0.00 0.00 0.00 56 1014.7
20260510160046 25 0 0.0 0.0 0.00 0.00 0.00 54 1014.8
20260510154552 25 0 0.0 6.4 0.00 0.00 0.00 54 1015.0
20260510153041 23 103 0.0 4.8 0.00 0.00 0.00 66 1015.2
20260510151541 22 97 0.0 4.8 0.00 0.00 0.00 64 1015.0
20260510150040 21 0 0.0 6.4 0.00 0.00 0.00 72 1014.9
20260510144546 21 0 0.0 6.4 0.00 0.00 0.00 74 1015.0
20260510143042 20 360 0.0 6.4 0.00 0.00 0.00 77 1014.9
20260510141539 19 0 0.0 3.2 0.00 0.00 0.00 76 1014.9
20260510140044 19 360 0.0 1.6 0.00 0.00 0.00 61 1014.9
20260510134549 18 360 0.0 3.2 0.00 0.00 0.00 19 1014.9
20260510133043 18 0 0.0 1.6 0.00 0.00 0.00 4 1014.7
20260510131543 17 0 0.0 0.0 0.00 0.00 0.00 3 1014.7
20260510130041 17 0 0.0 1.6 0.00 0.00 0.00 2 1014.5
20260510124542 17 0 0.0 1.6 0.00 0.00 0.00 3 1014.4
20260510123044 16 0 0.0 0.0 0.00 0.00 0.00 4 1014.3
20260510121541 16 222 0.0 1.6 0.00 0.00 0.00 6 1014.2
20260510120041 15 0 0.0 0.0 0.00 0.00 0.00 7 1014.2
20260510114541 15 0 0.0 0.0 0.00 0.00 0.00 9 1014.0
20260510113039 15 0 0.0 0.0 0.00 0.00 0.00 10 1013.6
20260510111544 15 0 0.0 0.0 0.00 0.00 0.00 9 1013.4
20260510110045 15 0 0.0 0.0 0.00 0.00 0.00 10 1013.4
20260510104543 15 0 0.0 0.0 0.00 0.00 0.00 10 1013.1
20260510103041 15 0 0.0 0.0 0.00 0.00 0.00 9 1012.9
20260510101540 15 0 0.0 0.0 0.00 0.00 0.00 10 1012.7
20260510100045 15 0 0.0 0.0 0.00 0.00 0.00 11 1012.5
20260510094557 15 0 0.0 0.0 0.00 0.00 0.00 12 1012.5
20260510093056 15 0 0.0 0.0 0.00 0.00 0.00 12 1012.3
20260510091548 15 0 0.0 0.0 0.00 0.00 0.00 12 1012.0
20260510090042 15 0 0.0 0.0 0.00 0.00 0.00 11 1011.8
20260510084540 15 0 0.0 0.0 0.00 0.00 0.00 10 1011.5
20260510083042 15 0 0.0 0.0 0.00 0.00 0.00 13 1011.7
20260510081543 15 0 0.0 0.0 0.00 0.00 0.00 13 1011.7
20260510080044 15 0 0.0 0.0 0.00 0.00 0.00 12 1011.5
20260510074544 15 0 0.0 0.0 0.00 0.00 0.00 13 1011.5
20260510073046 15 0 0.0 0.0 0.00 0.00 0.00 13 1011.5
20260510071549 15 0 0.0 0.0 0.00 0.00 0.00 13 1011.3
20260510070038 15 0 0.0 0.0 0.00 0.00 0.00 15 1011.4
20260510064537 15 0 0.0 0.0 0.00 0.00 0.00 14 1011.5
20260510063044 16 0 0.0 0.0 0.00 0.00 0.00 15 1011.4
20260510061543 16 0 0.0 0.0 0.00 0.00 0.00 16 1011.2
20260510060042 16 0 0.0 0.0 0.00 0.00 0.00 16 1011.5
20260510054539 16 0 0.0 0.0 0.00 0.00 0.00 16 1011.6
20260510053053 16 0 0.0 0.0 0.00 0.00 0.00 17 1011.7
20260510051549 16 0 0.0 0.0 0.00 0.00 0.00 17 1012.0
20260510050046 16 0 0.0 0.0 0.00 0.00 0.00 18 1011.9
20260510044542 16 0 0.0 0.0 0.00 0.00 0.00 19 1012.0
20260510043048 16 0 0.0 0.0 0.00 0.00 0.00 19 1012.0
20260510041539 16 0 0.0 0.0 0.00 0.00 0.00 19 1011.9
20260510040049 16 0 0.0 0.0 0.00 0.00 0.00 19 1011.8
20260510034544 16 0 0.0 0.0 0.00 0.00 0.00 20 1011.7
20260510033043 16 0 0.0 0.0 0.00 0.00 0.00 20 1011.7
20260510031547 16 0 0.0 0.0 0.00 0.00 0.00 21 1011.5
20260510030041 16 0 0.0 0.0 0.00 0.00 0.00 25 1011.5
20260510024542 17 0 0.0 0.0 0.00 0.00 0.00 24 1011.6
20260510023046 17 0 0.0 0.0 0.00 0.00 0.00 27 1011.4
20260510021549 17 0 0.0 0.0 0.00 0.00 0.00 28 1011.4
20260510020041 17 0 0.0 0.0 0.00 0.00 0.00 30 1011.2
20260510014544 17 0 0.0 0.0 0.00 0.00 0.00 34 1011.3
20260510013047 17 0 0.0 0.0 0.00 0.00 0.00 37 1010.8
20260510011543 18 0 0.0 0.0 0.00 0.00 0.00 42 1010.6
20260510010040 18 0 0.0 0.0 0.00 0.00 0.00 47 1010.4
20260510004541 18 0 0.0 0.0 0.00 0.00 0.00 53 1010.3
20260510003044 18 0 0.0 0.0 0.00 0.00 0.00 58 1010.2
20260510001544 19 0 0.0 0.0 0.00 0.00 0.00 62 1010.3
20260510000049 19 0 0.0 0.0 0.00 0.00 0.00 65 1010.2
20260509234541 20 0 0.0 0.0 0.00 0.00 0.00 68 1010.1
20260509233038 20 0 0.0 0.0 0.00 0.00 0.00 70 1009.8
20260509231545 20 0 0.0 0.0 0.00 0.00 0.00 72 1009.7
20260509230044 20 0 0.0 0.0 0.00 0.00 0.00 75 1009.6
20260509224541 20 0 0.0 1.6 0.00 0.00 0.00 76 1009.3
20260509223041 21 0 0.0 0.0 0.00 0.00 0.00 76 1009.5
20260509221543 21 0 0.0 0.0 0.00 0.00 0.00 77 1009.6
20260509220044 21 0 0.0 3.2 0.00 0.00 0.00 77 1009.6
20260509214552 21 236 0.0 4.8 0.00 0.00 0.00 76 1009.7
20260509213044 20 236 1.6 4.8 0.00 0.00 0.00 76 1009.4
20260509211540 21 0 0.0 1.6 0.00 0.00 0.00 77 1009.5
20260509210044 21 0 0.0 4.8 0.00 0.00 0.00 76 1009.6
20260509204542 20 237 1.6 6.4 0.00 0.00 0.00 76 1009.2
20260509203057 20 0 0.0 3.2 0.00 0.00 0.00 72 1009.3
20260509201545 20 0 0.0 1.6 0.00 0.00 0.00 74 1009.6
20260509200044 20 0 0.0 1.6 0.00 0.00 0.00 77 1009.8
20260509194541 20 0 0.0 1.6 0.00 0.00 0.00 77 1009.8
20260509193041 20 0 0.0 1.6 0.00 0.00 0.00 76 1009.8
20260509191554 20 0 0.0 4.8 0.00 0.00 0.00 74 1010.0
20260509190050 20 0 0.0 4.8 0.00 0.00 0.00 74 1009.8
20260509184549 20 0 0.0 3.2 0.00 0.00 0.00 75 1010.1